| time (UTC) | temp F | wind direction | speed MPH | gust MPH | rain 1hr in | rain 24hr in | rain mn in | humidity % | barometer mb |
| 20260906130521 | 60 | 134 | 0.0 | 0.0 | 0.00 | 0.20 | 0.00 | 70 | 987.6 |
| 20260906130022 | 60 | 134 | 0.0 | 1.0 | 0.00 | 0.20 | 0.00 | 70 | 987.5 |
| 20260906125519 | 60 | 134 | 0.0 | 1.0 | 0.00 | 0.24 | 0.00 | 70 | 987.5 |
| 20260906125018 | 60 | 134 | 0.0 | 1.0 | 0.00 | 0.24 | 0.00 | 70 | 987.5 |
| 20260906124517 | 60 | 134 | 0.0 | 1.0 | 0.00 | 0.24 | 0.00 | 70 | 987.2 |
| 20260906124021 | 60 | 134 | 0.0 | 0.0 | 0.00 | 0.24 | 0.00 | 70 | 987.3 |
| 20260906123521 | 59 | 134 | 0.0 | 1.0 | 0.00 | 0.24 | 0.00 | 70 | 987.3 |
| 20260906123018 | 59 | 134 | 0.0 | 1.0 | 0.00 | 0.24 | 0.00 | 70 | 987.2 |
| 20260906122517 | 59 | 134 | 0.0 | 1.0 | 0.00 | 0.24 | 0.00 | 70 | 986.8 |
| 20260906122017 | 59 | 135 | 0.0 | 1.0 | 0.00 | 0.24 | 0.00 | 70 | 986.9 |
| 20260906121517 | 59 | 135 | 0.0 | 1.0 | 0.00 | 0.24 | 0.00 | 70 | 987.0 |
| 20260906121016 | 59 | 135 | 0.0 | 0.0 | 0.00 | 0.24 | 0.00 | 70 | 987.2 |
| 20260906120517 | 59 | 135 | 0.0 | 0.0 | 0.00 | 0.24 | 0.00 | 70 | 987.3 |
| 20260906120015 | 59 | 135 | 0.0 | 1.0 | 0.00 | 0.24 | 0.00 | 70 | 987.2 |
| 20260906115516 | 59 | 135 | 0.0 | 1.0 | 0.00 | 0.24 | 0.00 | 70 | 987.0 |
| 20260906115014 | 59 | 135 | 0.0 | 0.0 | 0.00 | 0.24 | 0.00 | 70 | 987.0 |
| 20260906114528 | 59 | 135 | 0.0 | 0.0 | 0.00 | 0.24 | 0.00 | 70 | 987.1 |
| 20260906114015 | 59 | 135 | 0.0 | 0.0 | 0.00 | 0.24 | 0.00 | 70 | 987.1 |
| 20260906113513 | 59 | 135 | 0.0 | 0.0 | 0.00 | 0.24 | 0.00 | 70 | 987.2 |
| 20260906113017 | 59 | 135 | 0.0 | 0.0 | 0.00 | 0.24 | 0.00 | 70 | 987.1 |
| 20260906112513 | 59 | 135 | 0.0 | 0.0 | 0.00 | 0.24 | 0.00 | 70 | 987.0 |
| 20260906112013 | 59 | 135 | 0.0 | 1.0 | 0.00 | 0.24 | 0.00 | 70 | 986.9 |
| 20260906111513 | 59 | 135 | 0.0 | 3.0 | 0.00 | 0.24 | 0.00 | 70 | 987.0 |
| 20260906111012 | 59 | 135 | 0.0 | 3.0 | 0.00 | 0.24 | 0.00 | 70 | 987.0 |
| 20260906110512 | 59 | 13 | 0.0 | 0.0 | 0.00 | 0.24 | 0.00 | 70 | 987.0 |
| 20260906110013 | 58 | 14 | 0.0 | 0.0 | 0.00 | 0.24 | 0.00 | 70 | 986.9 |
| 20260906105514 | 58 | 13 | 0.0 | 0.0 | 0.00 | 0.24 | 0.00 | 69 | 986.8 |
| 20260906105010 | 58 | 14 | 0.0 | 0.0 | 0.00 | 0.24 | 0.00 | 70 | 986.9 |
| 20260906104514 | 58 | 14 | 0.0 | 0.0 | 0.00 | 0.24 | 0.00 | 70 | 986.9 |
| 20260906104009 | 58 | 13 | 0.0 | 0.0 | 0.00 | 0.24 | 0.00 | 69 | 986.9 |
| 20260906103509 | 58 | 14 | 0.0 | 0.0 | 0.00 | 0.24 | 0.00 | 70 | 986.9 |
| 20260906103009 | 59 | 13 | 0.0 | 0.0 | 0.00 | 0.24 | 0.00 | 70 | 986.7 |
| 20260906102508 | 59 | 13 | 0.0 | 0.0 | 0.00 | 0.24 | 0.00 | 70 | 986.5 |
| 20260906102008 | 58 | 14 | 0.0 | 0.0 | 0.00 | 0.24 | 0.00 | 70 | 986.6 |
| 20260906101518 | 58 | 14 | 0.0 | 0.0 | 0.00 | 0.24 | 0.00 | 70 | 986.6 |
| 20260906101007 | 58 | 14 | 0.0 | 0.0 | 0.00 | 0.24 | 0.00 | 70 | 986.7 |
| 20260906100509 | 58 | 13 | 0.0 | 2.0 | 0.00 | 0.24 | 0.00 | 69 | 986.6 |
| 20260906100007 | 58 | 14 | 0.0 | 2.0 | 0.00 | 0.24 | 0.00 | 69 | 986.5 |
| 20260906095507 | 58 | 14 | 0.0 | 0.0 | 0.00 | 0.24 | 0.00 | 69 | 986.6 |
| 20260906095006 | 58 | 14 | 0.0 | 2.0 | 0.00 | 0.24 | 0.00 | 69 | 986.6 |
| 20260906094506 | 58 | 14 | 0.0 | 2.0 | 0.00 | 0.24 | 0.00 | 69 | 986.6 |
| 20260906094005 | 58 | 14 | 1.0 | 3.0 | 0.00 | 0.24 | 0.00 | 69 | 986.4 |
| 20260906093505 | 58 | 14 | 1.0 | 3.0 | 0.00 | 0.24 | 0.00 | 69 | 986.3 |
| 20260906093005 | 58 | 140 | 0.0 | 0.0 | 0.00 | 0.24 | 0.00 | 69 | 986.4 |
| 20260906092504 | 58 | 140 | 0.0 | 0.0 | 0.00 | 0.24 | 0.00 | 69 | 986.4 |
| 20260906092004 | 58 | 140 | 0.0 | 0.0 | 0.00 | 0.24 | 0.00 | 69 | 986.5 |
| 20260906091504 | 58 | 140 | 0.0 | 0.0 | 0.00 | 0.24 | 0.00 | 69 | 986.4 |
| 20260906091002 | 59 | 140 | 0.0 | 0.0 | 0.00 | 0.24 | 0.00 | 69 | 986.6 |
| 20260906090502 | 59 | 140 | 0.0 | 0.0 | 0.00 | 0.24 | 0.00 | 69 | 986.4 |
| 20260906090002 | 59 | 140 | 0.0 | 0.0 | 0.00 | 0.24 | 0.00 | 69 | 986.6 |
| 20260906085502 | 59 | 140 | 0.0 | 0.0 | 0.00 | 0.24 | 0.00 | 69 | 986.5 |
| 20260906085059 | 59 | 140 | 0.0 | 0.0 | 0.00 | 0.24 | 0.00 | 68 | 986.5 |
| 20260906084559 | 60 | 140 | 0.0 | 1.0 | 0.00 | 0.24 | 0.00 | 69 | 986.4 |
| 20260906084058 | 60 | 140 | 0.0 | 1.0 | 0.00 | 0.24 | 0.00 | 69 | 986.4 |
| 20260906083602 | 60 | 140 | 0.0 | 2.0 | 0.00 | 0.24 | 0.00 | 69 | 986.3 |
| 20260906083100 | 60 | 140 | 0.0 | 3.0 | 0.00 | 0.24 | 0.00 | 69 | 986.2 |
| 20260906082558 | 60 | 136 | 0.0 | 2.0 | 0.00 | 0.24 | 0.00 | 69 | 986.3 |
| 20260906082058 | 60 | 136 | 0.0 | 0.0 | 0.00 | 0.24 | 0.00 | 69 | 986.2 |
| 20260906081557 | 60 | 136 | 0.0 | 0.0 | 0.00 | 0.24 | 0.00 | 68 | 986.1 |
| 20260906081101 | 60 | 136 | 0.0 | 0.0 | 0.00 | 0.24 | 0.00 | 69 | 986.0 |
| 20260906080600 | 60 | 136 | 0.0 | 0.0 | 0.00 | 0.24 | 0.00 | 68 | 986.1 |
| 20260906075554 | 60 | 136 | 0.0 | 2.0 | 0.00 | 0.24 | 0.00 | 68 | 986.0 |
| 20260906075053 | 61 | 136 | 0.0 | 2.0 | 0.00 | 0.24 | 0.00 | 68 | 986.0 |
| 20260906074554 | 61 | 136 | 0.0 | 0.0 | 0.00 | 0.24 | 0.00 | 68 | 986.1 |
| 20260906074052 | 61 | 136 | 0.0 | 0.0 | 0.00 | 0.24 | 0.00 | 68 | 986.2 |
| 20260906073553 | 61 | 136 | 0.0 | 0.0 | 0.00 | 0.24 | 0.00 | 68 | 986.2 |
| 20260906073054 | 61 | 136 | 0.0 | 0.0 | 0.00 | 0.24 | 0.00 | 68 | 986.1 |
| 20260906072552 | 61 | 136 | 0.0 | 0.0 | 0.00 | 0.24 | 0.00 | 68 | 986.1 |
| 20260906072052 | 61 | 136 | 0.0 | 0.0 | 0.00 | 0.24 | 0.00 | 68 | 986.2 |
| 20260906071554 | 61 | 136 | 0.0 | 0.0 | 0.00 | 0.24 | 0.00 | 68 | 986.3 |
| 20260906071050 | 61 | 136 | 0.0 | 0.0 | 0.00 | 0.24 | 0.00 | 68 | 986.3 |
| 20260906070550 | 62 | 136 | 0.0 | 1.0 | 0.00 | 0.24 | 0.00 | 68 | 986.3 |
| 20260906070056 | 62 | 136 | 0.0 | 1.0 | 0.00 | 0.24 | 0.00 | 68 | 986.3 |
| 20260906065549 | 62 | 136 | 0.0 | 0.0 | 0.00 | 0.24 | 0.00 | 68 | 986.4 |
| 20260906065049 | 62 | 136 | 0.0 | 1.0 | 0.00 | 0.24 | 0.00 | 68 | 986.3 |
| 20260906064552 | 62 | 136 | 0.0 | 1.0 | 0.00 | 0.24 | 0.00 | 68 | 986.2 |
| 20260906064048 | 62 | 136 | 0.0 | 1.0 | 0.00 | 0.24 | 0.00 | 68 | 986.4 |
| 20260906063548 | 62 | 136 | 0.0 | 1.0 | 0.00 | 0.24 | 0.00 | 68 | 986.3 |
| 20260906063049 | 62 | 136 | 0.0 | 0.0 | 0.00 | 0.24 | 0.00 | 68 | 986.3 |
| 20260906062546 | 62 | 136 | 0.0 | 0.0 | 0.00 | 0.24 | 0.00 | 68 | 986.3 |
| 20260906062046 | 62 | 136 | 0.0 | 0.0 | 0.00 | 0.24 | 0.00 | 68 | 986.2 |
| 20260906061545 | 62 | 136 | 0.0 | 0.0 | 0.00 | 0.24 | 0.00 | 68 | 986.2 |
| 20260906061045 | 62 | 136 | 0.0 | 0.0 | 0.00 | 0.24 | 0.00 | 67 | 986.3 |
| 20260906060545 | 62 | 136 | 0.0 | 0.0 | 0.00 | 0.24 | 0.00 | 67 | 986.3 |
| 20260906060045 | 62 | 136 | 0.0 | 0.0 | 0.00 | 0.24 | 0.00 | 67 | 986.3 |
| 20260906055545 | 62 | 136 | 0.0 | 0.0 | 0.00 | 0.24 | 0.00 | 67 | 986.3 |
| 20260906055044 | 62 | 136 | 0.0 | 0.0 | 0.00 | 0.24 | 0.00 | 67 | 986.3 |
| 20260906054557 | 62 | 136 | 0.0 | 0.0 | 0.00 | 0.24 | 0.00 | 67 | 986.2 |
| 20260906054043 | 62 | 136 | 0.0 | 0.0 | 0.00 | 0.24 | 0.00 | 67 | 986.1 |
| 20260906053543 | 62 | 136 | 0.0 | 0.0 | 0.00 | 0.24 | 0.00 | 67 | 986.2 |
| 20260906053042 | 62 | 136 | 0.0 | 0.0 | 0.00 | 0.24 | 0.00 | 67 | 986.3 |
| 20260906052542 | 62 | 136 | 0.0 | 0.0 | 0.00 | 0.24 | 0.00 | 67 | 986.3 |
| 20260906052041 | 62 | 136 | 0.0 | 0.0 | 0.00 | 0.24 | 0.00 | 66 | 986.2 |
| 20260906051602 | 62 | 136 | 0.0 | 0.0 | 0.00 | 0.24 | 0.00 | 66 | 986.3 |
| 20260906051040 | 62 | 136 | 0.0 | 1.0 | 0.00 | 0.24 | 0.00 | 66 | 986.2 |
| 20260906050543 | 62 | 136 | 0.0 | 1.0 | 0.00 | 0.24 | 0.00 | 66 | 986.3 |
| 20260906050044 | 63 | 136 | 0.0 | 1.0 | 0.00 | 0.24 | 0.00 | 66 | 986.2 |
| 20260906045541 | 63 | 136 | 0.0 | 0.0 | 0.00 | 0.24 | 0.24 | 65 | 986.2 |
| 20260906045041 | 63 | 136 | 0.0 | 0.0 | 0.00 | 0.24 | 0.24 | 65 | 986.1 |
| 20260906044548 | 63 | 136 | 0.0 | 1.0 | 0.00 | 0.24 | 0.24 | 65 | 986.2 |
| 20260906044037 | 63 | 136 | 0.0 | 1.0 | 0.00 | 0.24 | 0.24 | 64 | 986.3 |
| 20260906043537 | 64 | 136 | 0.0 | 1.0 | 0.00 | 0.24 | 0.24 | 64 | 986.3 |
| 20260906043038 | 64 | 136 | 0.0 | 3.0 | 0.00 | 0.24 | 0.24 | 65 | 986.4 |
| 20260906042537 | 64 | 136 | 1.0 | 3.0 | 0.00 | 0.24 | 0.24 | 65 | 986.3 |
| 20260906042041 | 64 | 150 | 1.0 | 3.0 | 0.00 | 0.24 | 0.24 | 65 | 986.3 |
| 20260906041537 | 64 | 139 | 0.0 | 2.0 | 0.00 | 0.24 | 0.24 | 65 | 986.5 |
| 20260906041038 | 64 | 139 | 0.0 | 2.0 | 0.00 | 0.24 | 0.24 | 64 | 986.5 |
| 20260906040537 | 64 | 139 | 0.0 | 1.0 | 0.00 | 0.24 | 0.24 | 64 | 986.4 |
| 20260906040110 | 65 | 139 | 0.0 | 1.0 | 0.00 | 0.24 | 0.24 | 63 | 986.4 |
| 20260906035537 | 65 | 139 | 0.0 | 1.0 | 0.00 | 0.24 | 0.24 | 63 | 986.4 |
| 20260906035036 | 65 | 139 | 0.0 | 1.0 | 0.00 | 0.24 | 0.24 | 63 | 986.4 |
| 20260906034536 | 66 | 139 | 0.0 | 2.0 | 0.00 | 0.24 | 0.24 | 63 | 986.3 |
| 20260906034036 | 66 | 139 | 0.0 | 4.0 | 0.00 | 0.24 | 0.24 | 63 | 986.3 |
| 20260906033536 | 66 | 139 | 1.0 | 4.0 | 0.00 | 0.24 | 0.24 | 63 | 986.3 |
| 20260906033048 | 66 | 148 | 0.0 | 2.0 | 0.00 | 0.24 | 0.24 | 63 | 986.3 |
| 20260906032539 | 67 | 148 | 0.0 | 3.0 | 0.00 | 0.24 | 0.24 | 63 | 986.2 |
| 20260906032035 | 67 | 148 | 0.0 | 4.0 | 0.00 | 0.24 | 0.24 | 63 | 986.2 |
| 20260906031536 | 67 | 146 | 0.0 | 1.0 | 0.00 | 0.24 | 0.24 | 63 | 986.1 |
| 20260906031037 | 67 | 146 | 0.0 | 2.0 | 0.00 | 0.24 | 0.24 | 63 | 986.1 |
| 20260906030535 | 67 | 146 | 1.0 | 5.0 | 0.00 | 0.24 | 0.24 | 63 | 986.0 |
| 20260906030035 | 67 | 146 | 1.0 | 5.0 | 0.00 | 0.24 | 0.24 | 64 | 986.1 |
| 20260906025534 | 67 | 166 | 1.0 | 4.0 | 0.00 | 0.24 | 0.24 | 64 | 986.2 |
| 20260906025034 | 67 | 193 | 0.0 | 0.0 | 0.00 | 0.24 | 0.24 | 64 | 986.2 |
| 20260906024534 | 67 | 194 | 0.0 | 0.0 | 0.00 | 0.24 | 0.24 | 64 | 986.2 |
| 20260906024034 | 67 | 194 | 0.0 | 0.0 | 0.00 | 0.24 | 0.24 | 63 | 986.2 |
| 20260906023534 | 67 | 194 | 0.0 | 0.0 | 0.00 | 0.24 | 0.24 | 63 | 986.2 |
| 20260906023034 | 67 | 194 | 0.0 | 0.0 | 0.00 | 0.24 | 0.24 | 63 | 986.0 |
| 20260906022534 | 67 | 194 | 0.0 | 0.0 | 0.00 | 0.24 | 0.24 | 64 | 986.2 |
| 20260906022034 | 67 | 194 | 0.0 | 0.0 | 0.00 | 0.24 | 0.24 | 63 | 986.0 |
| 20260906021534 | 67 | 194 | 0.0 | 0.0 | 0.00 | 0.24 | 0.24 | 64 | 986.0 |
| 20260906021033 | 67 | 194 | 0.0 | 0.0 | 0.00 | 0.24 | 0.24 | 63 | 985.9 |
| 20260906020534 | 67 | 194 | 0.0 | 0.0 | 0.00 | 0.24 | 0.24 | 63 | 985.9 |
| 20260906020035 | 67 | 194 | 0.0 | 0.0 | 0.00 | 0.24 | 0.24 | 62 | 985.9 |
| 20260906015533 | 67 | 194 | 0.0 | 0.0 | 0.00 | 0.24 | 0.24 | 61 | 985.9 |
| 20260906015033 | 68 | 194 | 0.0 | 0.0 | 0.00 | 0.24 | 0.24 | 61 | 985.9 |
| 20260906014533 | 68 | 194 | 0.0 | 0.0 | 0.00 | 0.24 | 0.24 | 60 | 985.9 |
| 20260906014032 | 69 | 194 | 0.0 | 0.0 | 0.00 | 0.24 | 0.24 | 60 | 985.7 |
| 20260906013532 | 69 | 194 | 0.0 | 0.0 | 0.00 | 0.24 | 0.24 | 59 | 985.6 |
| 20260906013034 | 70 | 194 | 0.0 | 0.0 | 0.00 | 0.24 | 0.24 | 58 | 985.6 |
| 20260906012532 | 70 | 194 | 0.0 | 0.0 | 0.00 | 0.24 | 0.24 | 57 | 985.5 |
| 20260906012032 | 71 | 194 | 0.0 | 0.0 | 0.00 | 0.24 | 0.24 | 57 | 985.5 |
| 20260906011532 | 72 | 194 | 0.0 | 0.0 | 0.00 | 0.24 | 0.24 | 57 | 985.3 |
| 20260906011031 | 73 | 194 | 0.0 | 0.0 | 0.00 | 0.24 | 0.24 | 57 | 985.3 |
| 20260906010531 | 73 | 194 | 0.0 | 0.0 | 0.00 | 0.24 | 0.24 | 57 | 985.4 |
| 20260906010032 | 74 | 194 | 0.0 | 0.0 | 0.00 | 0.24 | 0.24 | 57 | 985.4 |
| 20260906005531 | 74 | 194 | 0.0 | 0.0 | 0.00 | 0.24 | 0.24 | 57 | 985.4 |
| 20260906005031 | 75 | 194 | 0.0 | 0.0 | 0.00 | 0.24 | 0.24 | 56 | 985.4 |
| 20260906004530 | 75 | 194 | 0.0 | 0.0 | 0.00 | 0.24 | 0.24 | 56 | 985.3 |
| 20260906004031 | 76 | 194 | 0.0 | 1.0 | 0.00 | 0.24 | 0.24 | 55 | 985.2 |
| 20260906003535 | 77 | 194 | 0.0 | 1.0 | 0.00 | 0.24 | 0.24 | 55 | 984.9 |
| 20260906003030 | 77 | 194 | 0.0 | 2.0 | 0.00 | 0.24 | 0.24 | 55 | 985.0 |
| 20260906002532 | 77 | 194 | 0.0 | 3.0 | 0.00 | 0.24 | 0.24 | 55 | 984.8 |
| 20260906002030 | 77 | 194 | 0.0 | 4.0 | 0.00 | 0.24 | 0.24 | 55 | 984.9 |
| 20260906001533 | 77 | 182 | 0.0 | 4.0 | 0.00 | 0.24 | 0.24 | 54 | 984.9 |
| 20260906001030 | 77 | 188 | 0.0 | 4.0 | 0.00 | 0.24 | 0.24 | 54 | 984.9 |
| 20260906000530 | 77 | 184 | 0.0 | 0.0 | 0.00 | 0.24 | 0.24 | 54 | 984.8 |
| 20260906000031 | 76 | 184 | 0.0 | 0.0 | 0.00 | 0.24 | 0.24 | 55 | 984.8 |
| 20260905235529 | 76 | 184 | 0.0 | 0.0 | 0.00 | 0.24 | 0.24 | 55 | 984.6 |
| 20260905235030 | 75 | 184 | 0.0 | 1.0 | 0.00 | 0.24 | 0.24 | 55 | 984.7 |
| 20260905234529 | 75 | 184 | 0.0 | 1.0 | 0.00 | 0.24 | 0.24 | 55 | 984.7 |
| 20260905234029 | 75 | 184 | 0.0 | 0.0 | 0.00 | 0.24 | 0.24 | 55 | 984.7 |
| 20260905233529 | 75 | 184 | 0.0 | 0.0 | 0.00 | 0.24 | 0.24 | 55 | 984.6 |
| 20260905233029 | 75 | 184 | 0.0 | 1.0 | 0.00 | 0.24 | 0.24 | 55 | 984.6 |
| 20260905232529 | 75 | 184 | 0.0 | 3.0 | 0.00 | 0.24 | 0.24 | 55 | 984.5 |
| 20260905232029 | 75 | 184 | 0.0 | 3.0 | 0.00 | 0.24 | 0.24 | 55 | 984.5 |
| 20260905231529 | 75 | 184 | 0.0 | 4.0 | 0.00 | 0.24 | 0.24 | 55 | 984.5 |
| 20260905231028 | 76 | 182 | 2.0 | 4.0 | 0.00 | 0.24 | 0.24 | 55 | 984.5 |
| 20260905230528 | 76 | 202 | 0.0 | 5.0 | 0.00 | 0.24 | 0.24 | 54 | 984.4 |
| 20260905230029 | 76 | 203 | 1.0 | 8.0 | 0.00 | 0.24 | 0.24 | 54 | 984.3 |
| 20260905225031 | 77 | 186 | 1.0 | 5.0 | 0.00 | 0.24 | 0.24 | 52 | 984.2 |
| 20260905224605 | 78 | 147 | 1.0 | 5.0 | 0.00 | 0.24 | 0.24 | 52 | 984.1 |
| 20260905224031 | 78 | 149 | 1.0 | 9.0 | 0.00 | 0.24 | 0.24 | 51 | 984.1 |
| 20260905223531 | 78 | 96 | 5.0 | 11.0 | 0.00 | 0.24 | 0.24 | 50 | 984.3 |
| 20260905223031 | 79 | 150 | 2.0 | 7.0 | 0.00 | 0.24 | 0.24 | 49 | 984.3 |
| 20260905222530 | 79 | 123 | 2.0 | 7.0 | 0.00 | 0.24 | 0.24 | 49 | 984.2 |
| 20260905222030 | 79 | 152 | 4.0 | 7.0 | 0.00 | 0.24 | 0.24 | 48 | 984.2 |
| 20260905221530 | 79 | 130 | 3.0 | 10.0 | 0.00 | 0.24 | 0.24 | 48 | 984.4 |
| 20260905221032 | 79 | 184 | 5.0 | 10.0 | 0.00 | 0.24 | 0.24 | 48 | 984.1 |
| 20260905220529 | 79 | 173 | 5.0 | 10.0 | 0.00 | 0.24 | 0.24 | 49 | 984.2 |
| 20260905220029 | 79 | 113 | 3.0 | 11.0 | 0.00 | 0.24 | 0.24 | 51 | 984.1 |
| 20260905215529 | 79 | 119 | 6.0 | 12.0 | 0.00 | 0.24 | 0.24 | 49 | 984.0 |
| 20260905215030 | 79 | 138 | 4.0 | 12.0 | 0.00 | 0.24 | 0.24 | 50 | 984.0 |
| 20260905214528 | 79 | 110 | 6.0 | 12.0 | 0.00 | 0.24 | 0.24 | 49 | 984.1 |
| 20260905214027 | 79 | 121 | 5.0 | 11.0 | 0.00 | 0.24 | 0.24 | 49 | 984.1 |
| 20260905213526 | 78 | 123 | 5.0 | 13.0 | 0.00 | 0.24 | 0.24 | 43 | 984.2 |
| 20260905213026 | 78 | 110 | 6.0 | 13.0 | 0.00 | 0.24 | 0.24 | 44 | 984.2 |
| 20260905212530 | 78 | 153 | 6.0 | 11.0 | 0.00 | 0.24 | 0.24 | 44 | 984.2 |
| 20260905212024 | 78 | 131 | 5.0 | 14.0 | 0.00 | 0.24 | 0.24 | 44 | 984.3 |
| 20260905211538 | 78 | 122 | 6.0 | 14.0 | 0.00 | 0.24 | 0.24 | 45 | 984.3 |
| 20260905211022 | 78 | 142 | 8.0 | 14.0 | 0.00 | 0.24 | 0.24 | 46 | 984.4 |
| 20260905210522 | 78 | 129 | 9.0 | 14.0 | 0.00 | 0.24 | 0.24 | 46 | 984.4 |
| 20260905210034 | 78 | 134 | 9.0 | 15.0 | 0.00 | 0.24 | 0.24 | 46 | 984.4 |
| 20260905205521 | 77 | 113 | 7.0 | 15.0 | 0.00 | 0.24 | 0.24 | 46 | 984.4 |
| 20260905205019 | 77 | 101 | 7.0 | 14.0 | 0.00 | 0.24 | 0.24 | 46 | 984.4 |
| 20260905204520 | 77 | 155 | 6.0 | 17.0 | 0.00 | 0.24 | 0.24 | 47 | 984.4 |
| 20260905204019 | 77 | 141 | 8.0 | 14.0 | 0.00 | 0.24 | 0.24 | 48 | 984.5 |
| 20260905203517 | 77 | 169 | 10.0 | 13.0 | 0.00 | 0.24 | 0.24 | 48 | 984.4 |
| 20260905203017 | 76 | 129 | 7.0 | 13.0 | 0.00 | 0.24 | 0.24 | 48 | 984.5 |
| 20260905202517 | 76 | 203 | 7.0 | 14.0 | 0.00 | 0.24 | 0.24 | 50 | 984.5 |
| 20260905202014 | 76 | 109 | 8.0 | 14.0 | 0.00 | 0.24 | 0.24 | 51 | 984.7 |
| 20260905201513 | 76 | 103 | 8.0 | 14.0 | 0.00 | 0.24 | 0.24 | 52 | 984.9 |
| 20260905201012 | 75 | 109 | 9.0 | 14.0 | 0.00 | 0.24 | 0.24 | 52 | 984.8 |
| 20260905200516 | 75 | 103 | 8.0 | 13.0 | 0.00 | 0.24 | 0.24 | 52 | 984.7 |
| 20260905200021 | 75 | 174 | 5.0 | 11.0 | 0.00 | 0.24 | 0.24 | 52 | 984.8 |
| 20260905195512 | 75 | 157 | 6.0 | 12.0 | 0.00 | 0.24 | 0.24 | 53 | 984.8 |
| 20260905195008 | 75 | 360 | 4.0 | 12.0 | 0.00 | 0.24 | 0.24 | 54 | 984.6 |
| 20260905194507 | 74 | 101 | 7.0 | 12.0 | 0.00 | 0.24 | 0.24 | 56 | 984.7 |
| 20260905194006 | 74 | 101 | 6.0 | 11.0 | 0.00 | 0.24 | 0.24 | 57 | 984.6 |
| 20260905193505 | 73 | 127 | 6.0 | 11.0 | 0.00 | 0.24 | 0.24 | 58 | 984.7 |
| 20260905193003 | 73 | 121 | 5.0 | 11.0 | 0.00 | 0.24 | 0.24 | 58 | 984.6 |
| 20260905192502 | 73 | 120 | 5.0 | 12.0 | 0.00 | 0.24 | 0.24 | 58 | 984.5 |
| 20260905192002 | 73 | 184 | 3.0 | 11.0 | 0.00 | 0.24 | 0.24 | 59 | 984.5 |
| 20260905191607 | 73 | 98 | 5.0 | 13.0 | 0.00 | 0.24 | 0.24 | 59 | 984.4 |
| 20260905191100 | 73 | 88 | 7.0 | 13.0 | 0.00 | 0.24 | 0.24 | 59 | 984.4 |
| 20260905190600 | 72 | 82 | 7.0 | 14.0 | 0.00 | 0.24 | 0.24 | 60 | 984.4 |
| 20260905190103 | 72 | 176 | 9.0 | 14.0 | 0.00 | 0.24 | 0.24 | 60 | 984.5 |
| 20260905185556 | 72 | 107 | 9.0 | 13.0 | 0.00 | 0.24 | 0.24 | 60 | 984.6 |
| 20260905185055 | 71 | 98 | 6.0 | 11.0 | 0.00 | 0.24 | 0.24 | 62 | 984.6 |
| 20260905184559 | 71 | 103 | 3.0 | 9.0 | 0.00 | 0.24 | 0.24 | 63 | 984.7 |
| 20260905184052 | 70 | 148 | 4.0 | 9.0 | 0.00 | 0.24 | 0.24 | 63 | 984.8 |
| 20260905183552 | 69 | 101 | 3.0 | 9.0 | 0.00 | 0.24 | 0.24 | 64 | 984.8 |
| 20260905183051 | 69 | 103 | 3.0 | 8.0 | 0.00 | 0.24 | 0.24 | 65 | 984.8 |
| 20260905182549 | 69 | 132 | 3.0 | 9.0 | 0.00 | 0.24 | 0.24 | 65 | 984.9 |
| 20260905182048 | 68 | 99 | 2.0 | 9.0 | 0.00 | 0.24 | 0.24 | 66 | 985.0 |
| 20260905181548 | 68 | 86 | 1.0 | 9.0 | 0.00 | 0.24 | 0.24 | 67 | 984.9 |
| 20260905181046 | 67 | 145 | 3.0 | 9.0 | 0.00 | 0.24 | 0.24 | 67 | 985.0 |
| 20260905180547 | 67 | 121 | 2.0 | 9.0 | 0.00 | 0.24 | 0.24 | 67 | 984.9 |
| 20260905180052 | 67 | 74 | 3.0 | 9.0 | 0.00 | 0.24 | 0.24 | 67 | 985.0 |
| 20260905175543 | 66 | 67 | 2.0 | 7.0 | 0.00 | 0.24 | 0.24 | 67 | 985.1 |
| 20260905175041 | 66 | 55 | 2.0 | 7.0 | 0.00 | 0.24 | 0.24 | 68 | 985.0 |
| 20260905174541 | 66 | 107 | 2.0 | 6.0 | 0.00 | 0.24 | 0.24 | 68 | 985.0 |
| 20260905174043 | 66 | 63 | 2.0 | 9.0 | 0.00 | 0.24 | 0.24 | 68 | 985.1 |
| 20260905173541 | 65 | 76 | 3.0 | 9.0 | 0.00 | 0.24 | 0.24 | 67 | 985.2 |
| 20260905173101 | 65 | 75 | 1.0 | 9.0 | 0.00 | 0.24 | 0.24 | 67 | 985.2 |
| 20260905172541 | 66 | 99 | 3.0 | 8.0 | 0.00 | 0.24 | 0.24 | 67 | 985.0 |
| 20260905172042 | 66 | 32 | 1.0 | 8.0 | 0.00 | 0.24 | 0.24 | 67 | 984.9 |
| 20260905171541 | 66 | 107 | 1.0 | 6.0 | 0.00 | 0.24 | 0.24 | 67 | 985.0 |
| 20260905171042 | 66 | 60 | 2.0 | 8.0 | 0.00 | 0.24 | 0.24 | 67 | 985.2 |
| 20260905170541 | 66 | 57 | 4.0 | 8.0 | 0.00 | 0.24 | 0.24 | 67 | 985.3 |
| 20260905170044 | 67 | 103 | 3.0 | 6.0 | 0.00 | 0.24 | 0.24 | 67 | 985.5 |
| 20260905165540 | 67 | 123 | 1.0 | 5.0 | 0.00 | 0.24 | 0.24 | 67 | 985.6 |
| 20260905165039 | 67 | 104 | 1.0 | 5.0 | 0.00 | 0.24 | 0.24 | 67 | 985.4 |
| 20260905164539 | 67 | 140 | 1.0 | 6.0 | 0.00 | 0.24 | 0.24 | 68 | 985.4 |
| 20260905164040 | 67 | 67 | 2.0 | 6.0 | 0.00 | 0.24 | 0.24 | 67 | 985.2 |
| 20260905163540 | 67 | 49 | 1.0 | 5.0 | 0.00 | 0.24 | 0.24 | 68 | 985.1 |
| 20260905163038 | 67 | 151 | 0.0 | 6.0 | 0.00 | 0.24 | 0.24 | 68 | 985.0 |
| 20260905162537 | 67 | 60 | 2.0 | 6.0 | 0.00 | 0.24 | 0.24 | 68 | 985.1 |
| 20260905162036 | 67 | 42 | 0.0 | 4.0 | 0.00 | 0.24 | 0.24 | 68 | 985.2 |
| 20260905161546 | 66 | 42 | 0.0 | 4.0 | 0.00 | 0.24 | 0.24 | 68 | 985.3 |
| 20260905161035 | 66 | 96 | 0.0 | 2.0 | 0.00 | 0.24 | 0.24 | 68 | 985.1 |
| 20260905160536 | 66 | 88 | 0.0 | 2.0 | 0.00 | 0.24 | 0.24 | 68 | 985.0 |
| 20260905160034 | 66 | 76 | 0.0 | 2.0 | 0.00 | 0.24 | 0.24 | 68 | 984.8 |
| 20260905155535 | 66 | 82 | 0.0 | 3.0 | 0.00 | 0.24 | 0.24 | 68 | 984.5 |
| 20260905155033 | 66 | 67 | 0.0 | 3.0 | 0.00 | 0.24 | 0.24 | 68 | 984.9 |
| 20260905154533 | 66 | 65 | 0.0 | 3.0 | 0.01 | 0.24 | 0.24 | 68 | 984.8 |
| 20260905154033 | 66 | 107 | 0.0 | 9.0 | 0.01 | 0.24 | 0.24 | 68 | 984.9 |
| 20260905153532 | 66 | 105 | 2.0 | 9.0 | 0.01 | 0.24 | 0.24 | 68 | 984.9 |
| 20260905153033 | 65 | 171 | 4.0 | 9.0 | 0.01 | 0.24 | 0.24 | 68 | 984.5 |
| 20260905152533 | 66 | 153 | 3.0 | 11.0 | 0.01 | 0.24 | 0.24 | 68 | 984.3 |
| 20260905152033 | 66 | 125 | 6.0 | 12.0 | 0.02 | 0.24 | 0.24 | 68 | 984.3 |
| 20260905151532 | 66 | 128 | 6.0 | 31.0 | 0.03 | 0.24 | 0.24 | 70 | 984.7 |
| 20260905151030 | 66 | 146 | 6.0 | 31.0 | 0.06 | 0.24 | 0.24 | 70 | 984.2 |
| 20260905150534 | 65 | 120 | 3.0 | 15.0 | 0.08 | 0.24 | 0.24 | 70 | 984.8 |
| 20260905150030 | 65 | 22 | 2.0 | 16.0 | 0.11 | 0.24 | 0.24 | 70 | 985.0 |
| 20260905145530 | 64 | 345 | 6.0 | 12.0 | 0.13 | 0.24 | 0.24 | 70 | 984.4 |
| 20260905145025 | 63 | 52 | 4.0 | 21.0 | 0.14 | 0.23 | 0.23 | 70 | 983.4 |
| 20260905144525 | 63 | 88 | 8.0 | 25.0 | 0.15 | 0.23 | 0.23 | 70 | 981.9 |
| 20260905144023 | 62 | 34 | 10.0 | 25.0 | 0.16 | 0.23 | 0.23 | 70 | 984.0 |
| 20260905143521 | 61 | 92 | 12.0 | 19.0 | 0.17 | 0.23 | 0.23 | 70 | 984.4 |
| 20260905143021 | 61 | 360 | 12.0 | 19.0 | 0.18 | 0.23 | 0.23 | 70 | 985.0 |
| 20260905142520 | 61 | 89 | 10.0 | 16.0 | 0.18 | 0.23 | 0.23 | 70 | 985.9 |
| 20260905142020 | 61 | 123 | 5.0 | 20.0 | 0.18 | 0.22 | 0.22 | 70 | 985.9 |
| 20260905141520 | 61 | 82 | 10.0 | 20.0 | 0.17 | 0.21 | 0.21 | 70 | 985.6 |
| 20260905141022 | 61 | 106 | 6.0 | 9.0 | 0.14 | 0.18 | 0.18 | 70 | 987.4 |
| 20260905140523 | 61 | 145 | 5.0 | 8.0 | 0.11 | 0.15 | 0.15 | 70 | 988.1 |
| 20260905140018 | 60 | 132 | 2.0 | 7.0 | 0.09 | 0.13 | 0.13 | 70 | 988.4 |
| 20260905135519 | 60 | 132 | 1.0 | 6.0 | 0.07 | 0.10 | 0.10 | 70 | 988.7 |
| 20260905135019 | 60 | 209 | 0.0 | 6.0 | 0.06 | 0.09 | 0.09 | 70 | 988.6 |
| 20260905134519 | 60 | 180 | 1.0 | 6.0 | 0.05 | 0.08 | 0.08 | 70 | 988.6 |
| 20260905134017 | 60 | 233 | 2.0 | 6.0 | 0.04 | 0.07 | 0.07 | 70 | 988.4 |
| 20260905133517 | 60 | 184 | 0.0 | 5.0 | 0.03 | 0.06 | 0.06 | 70 | 988.6 |
| 20260905133024 | 60 | 196 | 2.0 | 5.0 | 0.03 | 0.05 | 0.05 | 70 | 988.3 |
| 20260905132517 | 60 | 180 | 0.0 | 5.0 | 0.03 | 0.05 | 0.05 | 70 | 988.5 |
| 20260905132015 | 60 | 159 | 2.0 | 5.0 | 0.02 | 0.04 | 0.04 | 70 | 988.1 |
| 20260905131523 | 60 | 139 | 1.0 | 4.0 | 0.04 | 0.04 | 0.04 | 70 | 987.8 |
| 20260905131017 | 60 | 22 | 0.0 | 3.0 | 0.04 | 0.04 | 0.04 | 70 | 987.6 |